Time,TemperatureF,DewpointF,PressureIn,WindDirection,WindDirectionDegrees,WindSpeedMPH,WindSpeedGustMPH,Humidity,HourlyPrecipIn,Conditions,Clouds,dailyrainin,SoftwareType,DateUTC
2013-01-26 00:23:00,21.0,-99.9,30.08,ESE,119,-999.0,-999.0,-999,-99.99,,,-99.99,,2013-01-26 05:23:00,
2013-01-26 00:33:00,21.0,-99.9,30.08,ESE,119,-999.0,-999.0,-999,-99.99,,,-99.99,,2013-01-26 05:33:00,
2013-01-26 00:42:00,21.0,-99.9,30.08,ESE,119,-999.0,-999.0,-999,-99.99,,,-99.99,,2013-01-26 05:42:00,
2013-01-26 01:52:00,18.0,-99.9,30.09,North,-999,-999.0,-999.0,-999,-99.99,,,-99.99,,2013-01-26 06:52:00,
2013-01-26 02:22:00,18.0,-99.9,30.09,North,-999,-999.0,-999.0,-999,-99.99,,,-99.99,,2013-01-26 07:22:00,
2013-01-26 02:33:00,18.0,-99.9,30.09,North,-999,-999.0,-999.0,-999,-99.99,,,-99.99,,2013-01-26 07:33:00,
2013-01-26 02:42:00,18.0,-99.9,30.09,North,-999,-999.0,-999.0,-999,-99.99,,,-99.99,,2013-01-26 07:42:00,
2013-01-26 02:52:00,18.0,-99.9,30.08,North,-999,-999.0,-999.0,-999,-99.99,,,-99.99,,2013-01-26 07:52:00,
2013-01-26 03:22:00,18.0,-99.9,30.08,North,-999,-999.0,-999.0,-999,-99.99,,,-99.99,,2013-01-26 08:22:00,
2013-01-26 03:32:00,18.0,-99.9,30.08,North,-999,-999.0,-999.0,-999,-99.99,,,-99.99,,2013-01-26 08:32:00,
2013-01-26 03:42:00,18.0,-99.9,30.08,North,-999,-999.0,-999.0,-999,-99.99,,,-99.99,,2013-01-26 08:42:00,
2013-01-26 03:52:00,18.0,-99.9,30.09,North,-999,-999.0,-999.0,-999,-99.99,,,-99.99,,2013-01-26 08:52:00,
2013-01-26 04:32:00,18.0,-99.9,30.09,North,-999,-999.0,-999.0,-999,-99.99,,,-99.99,,2013-01-26 09:32:00,
2013-01-26 04:42:00,18.0,-99.9,30.09,North,-999,-999.0,-999.0,-999,-99.99,,,-99.99,,2013-01-26 09:42:00,
2013-01-26 04:52:00,19.0,-99.9,30.11,North,-999,-999.0,-999.0,-999,-99.99,,,-99.99,,2013-01-26 09:52:00,
2013-01-26 05:21:00,19.0,-99.9,30.11,North,-999,-999.0,-999.0,-999,-99.99,,,-99.99,,2013-01-26 10:21:00,
2013-01-26 05:32:00,19.0,-99.9,30.11,North,-999,-999.0,-999.0,-999,-99.99,,,-99.99,,2013-01-26 10:32:00,
2013-01-26 05:43:00,19.0,-99.9,30.11,North,-999,-999.0,-999.0,-999,-99.99,,,-99.99,,2013-01-26 10:43:00,
2013-01-26 05:52:00,20.0,-99.9,30.13,NNW,344,-999.0,-999.0,-999,-99.99,,,-99.99,,2013-01-26 10:52:00,
2013-01-26 06:22:00,20.0,-99.9,30.13,NNW,344,-999.0,-999.0,-999,-99.99,,,-99.99,,2013-01-26 11:22:00,
2013-01-26 06:32:00,20.0,-99.9,30.13,NNW,344,-999.0,-999.0,-999,-99.99,,,-99.99,,2013-01-26 11:32:00,
2013-01-26 06:42:00,20.0,-99.9,30.13,NNW,344,-999.0,-999.0,-999,-99.99,,,-99.99,,2013-01-26 11:42:00,
2013-01-26 06:52:00,22.0,-99.9,30.15,North,359,-999.0,-999.0,-999,-99.99,,,-99.99,,2013-01-26 11:52:00,
2013-01-26 07:23:00,22.0,-99.9,30.15,North,359,-999.0,-999.0,-999,-99.99,,,-99.99,,2013-01-26 12:23:00,
2013-01-26 07:33:00,22.0,-99.9,30.15,North,359,-999.0,-999.0,-999,-99.99,,,-99.99,,2013-01-26 12:33:00,
2013-01-26 07:42:00,22.0,-99.9,30.15,North,359,-999.0,-999.0,-999,-99.99,,,-99.99,,2013-01-26 12:42:00,
2013-01-26 07:52:00,23.0,-99.9,30.17,North,-999,-999.0,10.0,-999,-99.99,,,-99.99,,2013-01-26 12:52:00,
2013-01-26 08:22:00,23.0,-99.9,30.17,North,-999,-999.0,10.0,-999,-99.99,,,-99.99,,2013-01-26 13:22:00,
2013-01-26 08:33:00,23.0,-99.9,30.17,North,-999,-999.0,10.0,-999,-99.99,,,-99.99,,2013-01-26 13:33:00,
2013-01-26 08:42:00,23.0,-99.9,30.17,North,-999,-999.0,10.0,-999,-99.99,,,-99.99,,2013-01-26 13:42:00,
2013-01-26 09:52:00,23.0,-99.9,30.20,North,-999,-999.0,-999.0,-999,-99.99,,,-99.99,,2013-01-26 14:52:00,
2013-01-26 10:33:00,23.0,-99.9,30.20,North,-999,-999.0,-999.0,-999,-99.99,,,-99.99,,2013-01-26 15:33:00,
2013-01-26 10:43:00,23.0,-99.9,30.20,North,-999,-999.0,-999.0,-999,-99.99,,,-99.99,,2013-01-26 15:43:00,
2013-01-26 10:52:00,24.0,-99.9,30.20,North,-999,-999.0,9.0,-999,-99.99,,,-99.99,,2013-01-26 15:52:00,
2013-01-26 11:22:00,24.0,-99.9,30.20,North,-999,-999.0,9.0,-999,-99.99,,,-99.99,,2013-01-26 16:22:00,
2013-01-26 11:33:00,24.0,-99.9,30.20,North,-999,-999.0,9.0,-999,-99.99,,,-99.99,,2013-01-26 16:33:00,
2013-01-26 11:43:00,24.0,-99.9,30.20,North,-999,-999.0,9.0,-999,-99.99,,,-99.99,,2013-01-26 16:43:00,
2013-01-26 11:52:00,24.0,-99.9,30.21,North,-999,-999.0,10.0,-999,-99.99,,,-99.99,,2013-01-26 16:52:00,
2013-01-26 12:23:00,24.0,-99.9,30.21,North,-999,-999.0,10.0,-999,-99.99,,,-99.99,,2013-01-26 17:23:00,
2013-01-26 12:33:00,24.0,-99.9,30.21,North,-999,-999.0,10.0,-999,-99.99,,,-99.99,,2013-01-26 17:33:00,
2013-01-26 12:42:00,24.0,-99.9,30.21,North,-999,-999.0,10.0,-999,-99.99,,,-99.99,,2013-01-26 17:42:00,
2013-01-26 12:52:00,26.0,-99.9,30.18,North,-999,-999.0,8.0,-999,-99.99,,,-99.99,,2013-01-26 17:52:00,
2013-01-26 13:22:00,26.0,-99.9,30.18,North,-999,-999.0,8.0,-999,-99.99,,,-99.99,,2013-01-26 18:22:00,
2013-01-26 13:33:00,26.0,-99.9,30.18,North,-999,-999.0,8.0,-999,-99.99,,,-99.99,,2013-01-26 18:33:00,
2013-01-26 13:42:00,26.0,-99.9,30.18,North,-999,-999.0,8.0,-999,-99.99,,,-99.99,,2013-01-26 18:42:00,
2013-01-26 13:52:00,27.0,-99.9,30.17,North,-999,-999.0,12.0,-999,-99.99,,,-99.99,,2013-01-26 18:52:00,
2013-01-26 14:23:00,27.0,-99.9,30.17,North,-999,-999.0,12.0,-999,-99.99,,,-99.99,,2013-01-26 19:23:00,
2013-01-26 14:33:00,27.0,-99.9,30.17,North,-999,-999.0,12.0,-999,-99.99,,,-99.99,,2013-01-26 19:33:00,
2013-01-26 14:43:00,27.0,-99.9,30.17,North,-999,-999.0,12.0,-999,-99.99,,,-99.99,,2013-01-26 19:43:00,
2013-01-26 15:52:00,28.0,-99.9,30.20,NNW,332,9.0,9.0,-999,-99.99,,,-99.99,,2013-01-26 20:52:00,
2013-01-26 16:23:00,28.0,-99.9,30.20,NNW,332,9.0,9.0,-999,-99.99,,,-99.99,,2013-01-26 21:23:00,
2013-01-26 16:32:00,28.0,-99.9,30.20,NNW,332,9.0,9.0,-999,-99.99,,,-99.99,,2013-01-26 21:32:00,
2013-01-26 16:43:00,28.0,-99.9,30.20,NNW,332,9.0,9.0,-999,-99.99,,,-99.99,,2013-01-26 21:43:00,
2013-01-26 16:52:00,27.0,-99.9,30.23,North,-999,5.0,9.0,-999,-99.99,,,-99.99,,2013-01-26 21:52:00,
2013-01-26 17:22:00,27.0,-99.9,30.23,North,-999,5.0,9.0,-999,-99.99,,,-99.99,,2013-01-26 22:22:00,
2013-01-26 17:32:00,27.0,-99.9,30.23,North,-999,5.0,9.0,-999,-99.99,,,-99.99,,2013-01-26 22:32:00,
2013-01-26 17:42:00,27.0,-99.9,30.23,North,-999,5.0,9.0,-999,-99.99,,,-99.99,,2013-01-26 22:42:00,
2013-01-26 17:52:00,26.0,-99.9,30.27,North,-999,-999.0,5.0,-999,-99.99,,,-99.99,,2013-01-26 22:52:00,
2013-01-26 18:22:00,26.0,-99.9,30.27,North,-999,-999.0,5.0,-999,-99.99,,,-99.99,,2013-01-26 23:22:00,
2013-01-26 18:33:00,26.0,-99.9,30.27,North,-999,-999.0,5.0,-999,-99.99,,,-99.99,,2013-01-26 23:33:00,
2013-01-26 18:42:00,26.0,-99.9,30.27,North,-999,-999.0,5.0,-999,-99.99,,,-99.99,,2013-01-26 23:42:00,
2013-01-26 19:52:00,24.0,-99.9,30.32,North,-999,-999.0,7.0,-999,-99.99,,,-99.99,,2013-01-27 00:52:00,
2013-01-26 20:22:00,24.0,-99.9,30.32,North,-999,-999.0,7.0,-999,-99.99,,,-99.99,,2013-01-27 01:22:00,
2013-01-26 20:32:00,24.0,-99.9,30.32,North,-999,-999.0,7.0,-999,-99.99,,,-99.99,,2013-01-27 01:32:00,
2013-01-26 20:42:00,24.0,-99.9,30.32,North,-999,-999.0,7.0,-999,-99.99,,,-99.99,,2013-01-27 01:42:00,
2013-01-26 20:52:00,23.0,-99.9,30.34,North,-999,-999.0,3.0,-999,-99.99,,,-99.99,,2013-01-27 01:52:00,
2013-01-26 21:22:00,23.0,-99.9,30.34,North,-999,-999.0,3.0,-999,-99.99,,,-99.99,,2013-01-27 02:22:00,
2013-01-26 21:32:00,23.0,-99.9,30.34,North,-999,-999.0,3.0,-999,-99.99,,,-99.99,,2013-01-27 02:32:00,
2013-01-26 21:42:00,23.0,-99.9,30.34,North,-999,-999.0,3.0,-999,-99.99,,,-99.99,,2013-01-27 02:42:00,
2013-01-26 22:52:00,22.0,-99.9,30.39,North,-999,-999.0,5.0,-999,-99.99,,,-99.99,,2013-01-27 03:52:00,
2013-01-26 23:22:00,22.0,-99.9,30.39,North,-999,-999.0,5.0,-999,-99.99,,,-99.99,,2013-01-27 04:22:00,
2013-01-26 23:32:00,22.0,-99.9,30.39,North,-999,-999.0,5.0,-999,-99.99,,,-99.99,,2013-01-27 04:32:00,
2013-01-26 23:42:00,22.0,-99.9,30.39,North,-999,-999.0,5.0,-999,-99.99,,,-99.99,,2013-01-27 04:42:00,